Location: Ccuta
(13.6856°S, 72.0925°W)
Time: 12:45:09
(UTC+00:00)

Daily predictions for brighter satellites

Satellite Brightness Start Highest point End
(mag) Time Altitude Azimuth Time Altitude Azimuth Time Altitude Azimuth
COSMOS 2406 3.9 22:54:01 10° S 22:59:09 33° ESE 23:04:14 10° NE
GPS 2-15 Rocket1 4.4 22:55:24 10° W 22:59:43 37° NNW 23:04:01 10° NE
Lacrosse 5 rocket 4.0 23:04:45 10° WSW 23:06:06 12° SW 23:07:25 10° SSW
AQUARIUS 4.5 23:01:50 10° S 23:06:21 74° WSW 23:10:49 10° NNW
USA 116 3.5 23:04:17 10° N 23:07:31 70° WNW 23:10:38 10° SSW
Cosmos 2151 3.3 23:03:15 10° S 23:07:31 73° W 23:11:42 10° N
CZ-4 R/B 2.9 23:07:55 10° ESE 23:10:15 15° E 23:12:33 10° NE
CZ-4B R/B 4.3 23:05:27 10° S 23:10:35 46° WSW 23:15:39 10° NNW
SMAP 3.9 23:06:09 10° S 23:10:44 56° WSW 23:15:17 10° NNW
Cosmos 1869 3.2 23:09:18 10° N 23:13:16 81° E 23:17:14 10° S
Okean O Rocket 3.3 23:09:21 10° S 23:13:20 35° WSW 23:17:17 10° NW
Cosmos 2082 Rocket 3.7 23:10:42 10° SE 23:13:41 14° ESE 23:16:38 10° E
Cosmos 2056 Rocket 4.1 23:10:56 10° NNW 23:16:03 59° WSW 23:21:09 10° S
Cosmos 332 Rocket 4.3 23:11:31 10° N 23:16:03 40° E 23:20:39 10° SSE
ATLAS 2AS CENTAUR R/B 4.3 23:10:42 10° WNW 23:16:07 29° WSW 23:21:23 10° S
SL-8 Rocket 4.4 23:13:40 10° SSE 23:19:24 39° E 23:25:04 10° NNE
Cosmos 2341 Rocket 4.0 23:13:59 10° S 23:20:08 60° E 23:26:13 10° NNE
Cosmos 2181 Rocket 4.3 23:17:42 10° N 23:23:50 74° W 23:30:07 10° S
CREW DRAGON DEMO-1 DEB 2.7 23:21:27 10° NW 23:24:30 87° NE 23:27:07 13° SE
BREEZE-M R/B 3.8 23:16:58 10° NW 23:24:54 71° SW 23:28:44 10° SSE
RESURS DK-1 2.3 23:21:50 10° N 23:25:56 68° ENE 23:30:04 10° SSE
Stardust Del rocket 4.4 23:24:54 10° SW 23:26:21 15° S 23:27:31 12° SSE
Cosmos 371 Rocket 3.3 23:25:54 10° NNW 23:30:42 83° WSW 23:35:32 10° S
Cosmos 2221 3.2 23:29:39 10° NNW 23:33:49 56° W 23:38:04 10° S
MOS 1 Rocket 3.4 23:29:41 10° NNE 23:34:44 59° ESE 23:39:32 10° S
Milstar 3 Cent rocket 3.9 23:31:51 10° WSW 23:35:39 18° SSW 23:38:49 10° SSE
FengYun 1-2 T 4.5 23:30:33 10° S 23:36:08 73° WSW 23:41:37 10° NNW
GPS 2-14 Rocket1 3.6 23:32:22 10° NW 23:36:15 38° NNE 23:38:28 21° ENE
Meteor 2-3 Rocket 3.7 23:31:02 10° S 23:36:47 89° E 23:42:32 10° N
Helios 1A Rocket 3.1 23:32:42 10° S 23:36:50 75° WSW 23:40:51 10° NNW
IRS-1C Rocket 4.2 23:32:11 10° S 23:37:30 84° WSW 23:42:46 10° NNW
Cosmos 1452 Rocket 3.5 23:34:36 10° N 23:39:47 65° ENE 23:45:01 10° SSE
NOAA 11 4.2 23:35:58 10° S 23:41:26 84° WSW 23:46:51 10° NNW
GPS 2-04 Rocket1 2.5 23:38:46 10° WNW 23:42:34 80° SW 23:44:20 29° SE
H-2A R/B 3.7 23:44:12 16° ENE 23:44:12 16° ENE 23:46:31 10° NE
Aurora 2 Rocket 3.5 23:41:18 10° SW 23:43:45 20° SSE 23:44:06 20° SSE
Intelsat 5-2 Rocket 3.0 23:39:04 10° WNW 23:43:48 46° NNE 23:44:47 31° ENE
CZ-2D R/B 3.2 23:40:50 10° SSE 23:44:37 60° E 23:48:21 10° N
Milstar 3 4.0 23:38:36 10° NW 23:46:14 48° NE 23:54:23 22° E
Cosmos 2218 Rocket 3.9 23:44:08 10° S 23:50:26 66° E 23:56:35 10° NNE
Cosmos 1140 Rocket 4.3 23:47:39 10° SSE 23:51:20 28° ESE 23:51:20 28° ESE
Cosmos 2369 Rocket 2.2 23:46:56 10° N 23:52:32 63° ENE 23:57:04 16° SSE
USA 238 DEB 3.6 23:46:39 10° SSW 23:53:09 54° ESE 23:59:31 10° NE
USA 238 3.6 23:46:48 10° SSW 23:53:17 54° ESE 23:59:37 10° NE
Cosmos 1939 Rocket 3.1 23:50:38 10° S 23:54:32 67° WSW 23:58:22 10° NNW
